DW4685 Weather Reports


Display with metric or nautical units.
time (UTC)temp
F
wind
direction
speed
MPH
gust
MPH
rain 1hr
in
rain 24hr
in
rain mn
in
humidity
%
barometer
mb
20260508033004 31 0 0.0 0.0 0.00 0.00 0.00 67 1008.2
20260508031504 32 0 0.0 0.0 0.00 0.00 0.00 66 1008.2
20260508030220 33 0 0.0 0.0 0.00 0.00 0.00 64 1008.3
20260508024503 34 0 0.0 0.0 0.00 0.00 0.00 61 1008.3
20260508023004 36 0 0.0 0.0 0.00 0.00 0.00 58 1008.5
20260508021503 38 0 0.0 0.0 0.00 0.00 0.00 56 1008.4
20260508020004 40 0 0.0 0.0 0.00 0.00 0.00 52 1008.4
20260508014504 42 0 0.0 0.0 0.00 0.00 0.00 49 1008.3
20260508013004 44 286 0.0 2.0 0.00 0.00 0.00 47 1008.2
20260508011718 45 302 1.0 4.0 0.00 0.00 0.00 44 1008.3
20260508010004 47 292 3.0 7.0 0.00 0.00 0.00 40 1008.2
20260508004503 48 295 5.0 11.0 0.00 0.00 0.00 39 1008.2
20260508003003 49 286 6.0 13.0 0.00 0.00 0.00 39 1008.3
20260508001504 49 293 5.0 12.0 0.00 0.00 0.00 39 1008.3
20260508000003 50 292 5.0 15.0 0.00 0.00 0.00 38 1008.3
20260507234503 50 292 5.0 12.0 0.00 0.00 0.00 37 1008.4
20260507233004 50 294 8.0 15.0 0.00 0.00 0.00 37 1008.4
20260507231504 50 286 9.0 17.0 0.00 0.00 0.00 37 1008.5
20260507230005 51 289 8.0 19.0 0.00 0.00 0.00 38 1008.7
20260507224504 50 295 7.0 17.0 0.00 0.00 0.00 38 1008.7
20260507223218 50 302 6.0 18.0 0.00 0.00 0.00 38 1008.8
20260507221503 50 297 7.0 18.0 0.00 0.00 0.00 38 1009.0
20260507220003 50 288 7.0 16.0 0.00 0.00 0.00 39 1009.0
20260507214503 50 299 6.0 16.0 0.00 0.00 0.00 37 1009.2
20260507213218 49 295 8.0 16.0 0.00 0.00 0.00 39 1009.3
20260507211504 49 291 9.0 19.0 0.00 0.00 0.00 40 1009.4
20260507210217 48 300 6.0 21.0 0.00 0.00 0.00 39 1009.6
20260507204718 49 293 5.0 12.0 0.00 0.00 0.00 39 1009.6
20260507203217 50 298 8.0 17.0 0.00 0.00 0.00 36 1009.7
20260507201503 49 299 6.0 14.0 0.00 0.00 0.00 36 1009.8
20260507200004 49 303 6.0 17.0 0.00 0.00 0.00 32 1009.9
20260507194504 48 291 7.0 15.0 0.00 0.00 0.00 34 1010.0
20260507193008 48 294 10.0 23.0 0.00 0.00 0.00 35 1010.1
20260507191504 49 290 8.0 18.0 0.00 0.00 0.00 37 1009.9
20260507190005 48 290 9.0 18.0 0.00 0.00 0.00 39 1009.9
20260507184504 48 287 9.0 23.0 0.00 0.00 0.00 40 1009.9
20260507183004 48 288 8.0 20.0 0.00 0.00 0.00 41 1010.0
20260507181504 46 282 6.0 17.0 0.00 0.00 0.00 44 1010.1
20260507180004 47 292 8.0 17.0 0.00 0.00 0.00 43 1010.2
20260507174720 46 300 8.0 16.0 0.00 0.00 0.00 46 1010.3
20260507173004 45 288 6.0 13.0 0.00 0.00 0.00 47 1010.6
20260507171503 45 309 5.0 13.0 0.00 0.00 0.00 48 1010.8
20260507170003 44 303 3.0 12.0 0.00 0.00 0.00 48 1011.0
20260507164504 43 337 4.0 11.0 0.00 0.00 0.00 52 1011.2
20260507163004 41 302 5.0 12.0 0.00 0.00 0.00 53 1011.3
20260507161504 41 314 5.0 12.0 0.00 0.00 0.00 54 1011.4
20260507160003 40 287 5.0 12.0 0.00 0.00 0.00 54 1011.5
20260507154504 39 303 4.0 10.0 0.00 0.00 0.00 55 1011.6
20260507153004 39 338 5.0 12.0 0.00 0.00 0.00 56 1011.7
20260507151504 39 309 5.0 12.0 0.00 0.00 0.00 58 1011.6
20260507150004 39 346 4.0 11.0 0.00 0.00 0.00 59 1011.7
20260507144503 37 319 4.0 8.0 0.00 0.00 0.00 60 1011.9
20260507143004 37 308 3.0 8.0 0.00 0.00 0.00 61 1011.9
20260507141503 37 332 3.0 9.0 0.00 0.00 0.00 64 1011.9
20260507140004 35 330 2.0 6.0 0.00 0.00 0.00 67 1012.0
20260507134503 34 336 4.0 7.0 0.00 0.00 0.00 69 1012.1
20260507133003 32 318 3.0 9.0 0.00 0.00 0.00 72 1012.1
20260507131503 31 288 4.0 8.0 0.00 0.00 0.00 74 1012.0
20260507130218 30 297 4.0 8.0 0.00 0.00 0.00 77 1012.0
20260507124503 28 309 2.0 5.0 0.00 0.00 0.00 83 1012.0
20260507123003 26 297 2.0 6.0 0.00 0.00 0.00 87 1011.9
20260507121504 24 310 2.0 4.0 0.00 0.00 0.00 91 1011.9
20260507120218 21 300 1.0 6.0 0.00 0.00 0.00 91 1011.8
20260507114717 20 296 0.0 2.0 0.00 0.00 0.00 89 1011.7
20260507113004 19 0 0.0 0.0 0.00 0.00 0.00 89 1011.4
20260507111504 19 296 0.0 1.0 0.00 0.00 0.00 88 1011.3
20260507110003 19 0 0.0 0.0 0.00 0.00 0.00 88 1011.2
20260507104504 19 296 0.0 2.0 0.00 0.00 0.00 88 1011.4
20260507103003 19 0 0.0 0.0 0.00 0.00 0.00 88 1011.4
20260507101718 19 0 0.0 0.0 0.00 0.00 0.00 88 1011.3
20260507100004 19 0 0.0 0.0 0.00 0.00 0.00 87 1011.4
20260507094718 19 0 0.0 0.0 0.00 0.00 0.00 87 1011.4
20260507093003 20 0 0.0 0.0 0.00 0.00 0.00 88 1011.5
20260507091503 20 0 0.0 0.0 0.00 0.00 0.00 87 1011.4
20260507090005 20 0 0.0 0.0 0.00 0.00 0.00 87 1011.5
20260507084503 20 0 0.0 0.0 0.00 0.00 0.00 87 1011.6
20260507083219 21 0 0.0 0.0 0.00 0.00 0.00 87 1011.6
20260507081504 21 0 0.0 0.0 0.00 0.00 0.00 87 1011.7
20260507080004 22 0 0.0 0.0 0.00 0.00 0.00 87 1011.6
20260507074503 22 0 0.0 0.0 0.00 0.00 0.00 86 1011.6
20260507073004 22 0 0.0 0.0 0.00 0.00 0.00 86 1011.8
20260507071717 23 0 0.0 0.0 0.00 0.00 0.00 86 1011.8
20260507070007 23 0 0.0 0.0 0.00 0.00 0.00 86 1011.9
20260507064503 23 0 0.0 0.0 0.00 0.00 0.00 85 1011.9
20260507063218 24 0 0.0 0.0 0.00 0.00 0.00 85 1012.0
20260507061504 24 0 0.0 0.0 0.00 0.00 0.00 84 1012.1
20260507060004 24 0 0.0 0.0 0.00 0.00 0.00 83 1012.3
20260507054503 25 0 0.0 0.0 0.00 0.00 0.00 83 1012.3
20260507053003 25 0 0.0 0.0 0.00 0.00 0.00 83 1012.5
20260507051503 26 0 0.0 0.0 0.00 0.00 0.00 82 1012.6
20260507050217 26 0 0.0 0.0 0.00 0.00 0.00 81 1012.7
20260507044503 27 0 0.0 0.0 0.00 0.00 0.00 80 1012.8
20260507043217 27 0 0.0 0.0 0.00 0.00 0.00 80 1012.9
20260507041504 28 0 0.0 0.0 0.00 0.00 0.00 78 1012.9
20260507040004 29 0 0.0 0.0 0.00 0.00 0.00 77 1013.1
20260507034503 30 0 0.0 0.0 0.00 0.00 0.00 75 1013.2